Weather History for Dayton Wright, OH

Change the Weather History Date:

Friday, January 10, 2014

  Actual Average (KFFO) Record (KFFO)
Temperature  
Mean Temperature 42 °F -  
Max Temperature 50 °F 34 °F 54 °F (2008)
Min Temperature 33 °F 19 °F -9 °F (1999)
Degree Days  
Heating Degree Days 24    
Moisture  
Dew Point 38 °F    
Average Humidity 96    
Maximum Humidity 100    
Minimum Humidity 89    
Precipitation  
Precipitation 0.00 in - - ()
Sea Level Pressure  
Sea Level Pressure 30.10 in    
Wind  
Wind Speed 8 mph (SSE)    
Max Wind Speed 16 mph    
Max Gust Speed -    
Visibility 6 miles    
Events Fog , Snow    
Averages and records for this station are not official NWS values.
T = Trace of Precipitation, MM = Missing Value Source: NWS Daily Summary

Daily Weather History Graph

Daily Weather History Graph

Search for Another Location

Airport:

Trip Planner

Search our weather history database for the weather conditions in past years. The results will help you decide how hot, cold, wet, or windy it might be!

Date:

Astronomy

Jan. 10, 2014 Rise Set
Actual Time 7:57 AM EST 5:32 PM EST
Civil Twilight 7:27 AM EST 6:01 PM EST
Nautical Twilight 6:54 AM EST 6:35 PM EST
Astronomical Twilight 6:21 AM EST 7:07 PM EST
Moon 1:35 PM EST (1/10) 3:04 AM EST (1/10)
Length of Visible Light 10h 34m
Length of Day
9h 34m
Waxing Gibbous, 75% of the Moon is Illuminated
Jan 10
Waxing Gibbous
Jan 15
Full
Jan 24
Last Quarter
Jan 30
New
Feb 6
First Quarter

Hourly Weather History & Observations

Time (EST) Temp. Windchill Dew Point Humidity Pressure Visibility Wind Dir Wind Speed Gust Speed Precip Events Conditions
12:06 AM 33.1 °F 26.9 °F 32.0 °F 96% 30.26 in 6.0 mi South 6.9 mph - 0.00 in Snow Light Snow
12:19 AM 33.1 °F 26.9 °F 32.0 °F 96% 30.25 in 9.0 mi SSE 6.9 mph - 0.00 in   Overcast
12:53 AM 33.1 °F 26.9 °F 32.0 °F 96% 30.27 in 10.0 mi South 6.9 mph - 0.00 in   Overcast
1:36 AM 33.1 °F 26.9 °F 32.0 °F 96% 30.23 in 10.0 mi SSE 6.9 mph - N/A   Overcast
1:53 AM 34.0 °F 28.8 °F 32.0 °F 92% 30.26 in 10.0 mi SSE 5.8 mph - N/A   Overcast
2:34 AM 34.0 °F 28.0 °F 32.0 °F 92% 30.23 in 10.0 mi South 6.9 mph - N/A   Overcast
2:53 AM 34.0 °F 28.0 °F 32.0 °F 92% 30.26 in 10.0 mi South 6.9 mph - N/A   Overcast
3:17 AM 34.0 °F 27.2 °F 32.0 °F 92% 30.23 in 10.0 mi South 8.1 mph - N/A   Overcast
3:34 AM 34.0 °F 27.2 °F 32.0 °F 92% 30.22 in 10.0 mi South 8.1 mph - N/A   Overcast
3:53 AM 34.0 °F 27.2 °F 32.0 °F 92% 30.24 in 10.0 mi SSE 8.1 mph - N/A   Overcast
4:25 AM 35.1 °F 27.4 °F 33.1 °F 92% 30.21 in 10.0 mi South 10.4 mph - N/A   Overcast
4:36 AM 34.0 °F 26.6 °F 33.1 °F 96% 30.21 in 10.0 mi South 9.2 mph - N/A   Overcast
4:53 AM 35.1 °F 27.4 °F 33.1 °F 92% 30.22 in 10.0 mi South 10.4 mph - N/A   Overcast
5:19 AM 35.1 °F 27.9 °F 34.0 °F 96% 30.19 in 7.0 mi South 9.2 mph - N/A   Overcast
5:35 AM 35.1 °F 28.6 °F 34.0 °F 96% 30.19 in 4.0 mi South 8.1 mph - N/A   Overcast
5:53 AM 35.1 °F 27.9 °F 35.1 °F 100% 30.21 in 4.0 mi South 9.2 mph - N/A   Overcast
6:44 AM 36.0 °F 30.3 °F 35.1 °F 97% 30.18 in 2.5 mi South 6.9 mph - N/A   Overcast
6:53 AM 36.0 °F 30.3 °F 35.1 °F 97% 30.21 in 2.0 mi South 6.9 mph - N/A   Overcast
7:01 AM 36.0 °F 30.3 °F 36.0 °F 100% 30.19 in 1.5 mi South 6.9 mph - N/A   Overcast
7:16 AM 36.0 °F 31.1 °F 36.0 °F 100% 30.19 in 0.5 mi South 5.8 mph - N/A Fog Fog
7:53 AM 36.0 °F 29.6 °F 36.0 °F 100% 30.21 in 0.5 mi South 8.1 mph - N/A Fog Fog
8:53 AM 36.0 °F 31.1 °F 36.0 °F 100% 30.22 in 0.2 mi South 5.8 mph - N/A Fog Fog
9:38 AM 37.0 °F 31.6 °F 37.0 °F 100% 30.20 in 1.0 mi South 6.9 mph - N/A   Overcast
9:53 AM 37.0 °F 31.0 °F 37.0 °F 100% 30.22 in 1.5 mi SSE 8.1 mph - N/A   Overcast
10:09 AM 37.9 °F 32.7 °F 37.0 °F 97% 30.19 in 2.0 mi South 6.9 mph - N/A   Overcast
10:27 AM 37.9 °F 32.1 °F 37.9 °F 100% 30.19 in 3.0 mi South 8.1 mph - N/A   Overcast
10:53 AM 39.0 °F 32.8 °F 37.9 °F 96% 30.21 in 4.0 mi SSE 9.2 mph - N/A   Overcast
11:27 AM 39.9 °F 32.9 °F 39.0 °F 97% 30.17 in 2.5 mi SSE 11.5 mph - N/A   Overcast
11:53 AM 39.9 °F 33.9 °F 39.9 °F 100% 30.17 in 2.0 mi SSE 9.2 mph - N/A   Overcast
12:05 PM 39.9 °F 33.9 °F 39.9 °F 100% 30.13 in 1.5 mi SSE 9.2 mph - N/A   Overcast
12:53 PM 42.1 °F 36.1 °F 41.0 °F 96% 30.11 in 1.8 mi SSE 10.4 mph - N/A   Overcast
1:27 PM 43.0 °F 37.2 °F 42.1 °F 97% 30.07 in 2.0 mi SSE 10.4 mph - N/A   Overcast
1:53 PM 43.0 °F 38.8 °F 43.0 °F 100% 30.07 in 2.0 mi SSE 6.9 mph - N/A   Overcast
2:26 PM 44.1 °F 38.6 °F 43.0 °F 96% 30.03 in 3.0 mi SSE 10.4 mph - N/A   Overcast
2:53 PM 44.1 °F 39.0 °F 43.0 °F 96% 30.04 in 4.0 mi SSE 9.2 mph - N/A   Overcast
3:53 PM 44.1 °F 39.5 °F 43.0 °F 96% 29.99 in 3.0 mi SE 8.1 mph - N/A   Overcast
4:33 PM 45.0 °F 39.3 °F 43.0 °F 93% 29.96 in 5.0 mi SE 11.5 mph - N/A   Overcast
4:53 PM 45.0 °F 39.7 °F 43.0 °F 93% 29.97 in 7.0 mi SE 10.4 mph - N/A   Overcast
5:41 PM 45.0 °F 38.9 °F 43.0 °F 93% 29.91 in 8.0 mi SE 12.7 mph - N/A   Overcast
5:53 PM 45.0 °F 38.9 °F 43.0 °F 93% 29.93 in 8.0 mi SE 12.7 mph - N/A   Overcast
6:08 PM 45.0 °F 37.9 °F 44.1 °F 97% 29.91 in 7.0 mi SSE 16.1 mph - N/A   Overcast
6:37 PM 45.0 °F 39.3 °F 44.1 °F 97% 29.90 in 9.0 mi SSE 11.5 mph - N/A   Overcast
6:53 PM 45.0 °F 38.2 °F 44.1 °F 97% 29.90 in 10.0 mi SSE 15.0 mph - N/A   Overcast
7:10 PM 45.0 °F 39.3 °F 44.1 °F 97% 29.88 in 10.0 mi SSE 11.5 mph - N/A   Overcast
7:53 PM 46.0 °F 40.6 °F 44.1 °F 93% 29.87 in 10.0 mi SE 11.5 mph - N/A   Overcast
8:53 PM 46.0 °F 41.0 °F 45.0 °F 96% 29.85 in 10.0 mi SSE 10.4 mph - 0.00 in   Overcast
9:53 PM 48.0 °F - 45.0 °F 89% 29.81 in 10.0 mi SSE 12.7 mph - N/A   Overcast
10:53 PM 50.0 °F - 46.9 °F 89% 29.75 in 10.0 mi South 16.1 mph - N/A   Overcast
11:53 PM 50.0 °F - 48.0 °F 93% 29.73 in 10.0 mi South 13.8 mph - N/A   Overcast